K9BM Weather Reports


Display with metric or nautical units.
time (UTC)temp
F
wind
direction
speed
MPH
gust
MPH
rain 1hr
in
rain 24hr
in
rain mn
in
humidity
%
barometer
mb
20260831072505 54 199 6.0 10.0 0.00 0.12 0.00 48 1010.3
20260831072006 54 207 5.0 8.0 0.00 0.12 0.00 48 1010.3
20260831071505 54 206 6.0 9.0 0.00 0.12 0.00 47 1010.3
20260831071005 54 205 6.0 9.0 0.00 0.12 0.00 48 1010.2
20260831070005 54 201 7.0 12.0 0.00 0.12 0.00 48 1010.1
20260831065505 55 196 9.0 10.0 0.00 0.12 0.00 47 1010.0
20260831065005 55 211 5.0 10.0 0.00 0.12 0.00 46 1010.0
20260831064505 55 230 6.0 9.0 0.00 0.12 0.00 46 1009.9
20260831064005 55 229 6.0 7.0 0.00 0.12 0.00 47 1009.8
20260831063505 55 223 5.0 7.0 0.00 0.12 0.00 48 1009.8
20260831063005 55 222 5.0 10.0 0.00 0.12 0.00 48 1009.8
20260831062005 55 204 6.0 10.0 0.00 0.12 0.00 47 1009.7
20260831061505 55 201 8.0 10.0 0.00 0.12 0.00 47 1009.6
20260831061006 56 205 6.0 10.0 0.00 0.12 0.00 46 1009.5
20260831060006 56 217 6.0 9.0 0.00 0.12 0.00 46 1009.3
20260831055505 56 226 6.0 10.0 0.00 0.12 0.12 46 1009.2
20260831055006 56 218 6.0 10.0 0.00 0.12 0.12 46 1009.2
20260831054505 56 208 6.0 10.0 0.00 0.12 0.12 46 1009.1
20260831054005 56 218 6.0 10.0 0.00 0.12 0.12 46 1009.1
20260831053505 56 218 6.0 10.0 0.00 0.12 0.12 47 1009.1
20260831053006 56 216 5.0 9.0 0.00 0.12 0.12 47 1009.0
20260831052505 56 213 6.0 10.0 0.00 0.12 0.12 47 1009.0
20260831052005 56 229 6.0 10.0 0.00 0.12 0.12 46 1009.1
20260831051005 56 208 5.0 8.0 0.00 0.13 0.12 46 1009.1
20260831050005 57 233 5.0 8.0 0.00 0.13 0.12 43 1009.1
20260831045505 57 227 5.0 9.0 0.00 0.13 0.12 43 1009.1
20260831045005 57 203 5.0 9.0 0.00 0.13 0.12 43 1009.1
20260831044505 57 200 6.0 10.0 0.00 0.13 0.12 42 1009.0
20260831043505 58 198 6.0 9.0 0.00 0.13 0.12 40 1009.1
20260831043005 58 205 3.0 7.0 0.00 0.13 0.12 38 1009.1
20260831042005 58 199 5.0 10.0 0.00 0.13 0.12 38 1008.9
20260831041505 58 184 4.0 12.0 0.00 0.13 0.12 39 1008.9
20260831040005 59 190 5.0 6.0 0.00 0.13 0.12 38 1008.7
20260831035505 59 201 3.0 8.0 0.00 0.13 0.12 37 1008.6
20260831035005 59 199 3.0 8.0 0.00 0.13 0.12 37 1008.7
20260831034505 59 194 6.0 12.0 0.00 0.13 0.12 38 1008.7
20260831034005 59 184 7.0 12.0 0.00 0.13 0.12 39 1008.7
20260831033505 60 182 7.0 9.0 0.00 0.13 0.12 40 1008.6
20260831033005 60 196 5.0 8.0 0.00 0.13 0.12 39 1008.5
20260831032505 60 192 5.0 8.0 0.00 0.13 0.12 40 1008.5
20260831032005 60 226 5.0 9.0 0.00 0.13 0.12 39 1008.5
20260831031505 60 209 3.0 9.0 0.00 0.13 0.12 40 1008.4
20260831031005 60 201 6.0 9.0 0.00 0.13 0.12 40 1008.4
20260831030005 61 228 5.0 6.0 0.00 0.13 0.12 38 1008.3
20260831025505 61 230 3.0 6.0 0.00 0.13 0.12 38 1008.1
20260831025006 61 230 5.0 6.0 0.00 0.13 0.12 37 1008.0
20260831024506 61 230 3.0 6.0 0.00 0.13 0.12 37 1008.0
20260831024005 61 228 3.0 8.0 0.00 0.13 0.12 37 1007.9
20260831023505 62 200 5.0 8.0 0.00 0.13 0.12 36 1007.8
20260831023006 62 201 5.0 7.0 0.00 0.13 0.12 36 1007.7
20260831022504 63 229 5.0 9.0 0.00 0.13 0.12 34 1007.6
20260831022005 64 229 4.0 12.0 0.00 0.13 0.12 34 1007.5
20260831021505 64 239 7.0 13.0 0.00 0.13 0.12 33 1007.6
20260831021006 64 251 9.0 13.0 0.00 0.13 0.12 32 1007.4
20260831015505 65 270 10.0 16.0 0.00 0.13 0.12 29 1007.4
20260831015006 66 267 10.0 14.0 0.00 0.13 0.12 29 1007.3
20260831014505 66 261 8.0 14.0 0.00 0.13 0.12 29 1007.3
20260831013505 66 259 12.0 16.0 0.00 0.13 0.12 29 1007.3
20260831013005 66 259 11.0 16.0 0.00 0.13 0.12 29 1007.3
20260831012505 67 265 11.0 15.0 0.00 0.13 0.12 29 1007.3
20260831011505 67 268 12.0 15.0 0.00 0.13 0.12 28 1007.3
20260831011005 67 263 9.0 18.0 0.00 0.13 0.12 29 1007.4
20260831010005 67 272 12.0 18.0 0.00 0.13 0.12 29 1007.4
20260831005505 67 277 10.0 17.0 0.00 0.13 0.12 31 1007.3
20260831004505 67 283 10.0 20.0 0.00 0.13 0.12 32 1007.3
20260831004005 67 294 12.0 20.0 0.00 0.13 0.12 31 1007.3
20260831003505 67 285 12.0 20.0 0.00 0.15 0.12 31 1007.1
20260831003005 68 278 10.0 20.0 0.00 0.21 0.12 31 1007.1
20260831002505 68 287 12.0 20.0 0.00 0.23 0.12 31 1007.1
20260831002006 69 281 12.0 18.0 0.00 0.23 0.12 30 1007.1
20260831001505 69 286 14.0 20.0 0.00 0.23 0.12 29 1007.0
20260831001005 70 272 14.0 20.0 0.00 0.23 0.12 29 1007.1
20260831000005 70 281 14.0 24.0 0.00 0.23 0.12 29 1007.0
20260830235505 70 282 17.0 22.0 0.00 0.23 0.12 28 1006.9
20260830235005 70 284 12.0 22.0 0.00 0.23 0.12 29 1006.8
20260830234505 70 274 14.0 26.0 0.00 0.23 0.12 29 1006.9
20260830234005 70 286 16.0 26.0 0.00 0.23 0.12 28 1007.0
20260830233505 70 276 18.0 26.0 0.00 0.23 0.12 27 1006.9
20260830233005 70 273 16.0 26.0 0.00 0.23 0.12 28 1006.9
20260830232505 70 289 17.0 24.0 0.00 0.23 0.12 28 1006.8
20260830232006 70 270 17.0 26.0 0.00 0.23 0.12 27 1006.8
20260830231505 70 275 18.0 26.0 0.00 0.23 0.12 28 1006.8
20260830231005 70 275 17.0 25.0 0.00 0.23 0.12 28 1006.9
20260830230005 70 274 15.0 22.0 0.00 0.23 0.12 29 1006.9
20260830224505 70 284 14.0 25.0 0.00 0.23 0.12 30 1006.9
20260830224005 70 264 16.0 25.0 0.00 0.23 0.12 28 1007.0
20260830223505 70 280 14.0 23.0 0.00 0.23 0.12 28 1006.9
20260830223005 69 299 15.0 24.0 0.00 0.23 0.12 29 1006.9
20260830222505 69 298 13.0 24.0 0.00 0.23 0.12 30 1006.9
20260830222005 69 283 14.0 26.0 0.00 0.23 0.12 29 1006.9
20260830221505 69 278 16.0 26.0 0.00 0.23 0.12 30 1007.0
20260830220005 69 292 12.0 20.0 0.00 0.23 0.12 32 1007.2
20260830215505 69 280 13.0 20.0 0.00 0.23 0.12 32 1007.3
20260830215005 69 287 12.0 20.0 0.00 0.23 0.12 34 1007.3
20260830214005 68 297 12.0 25.0 0.00 0.23 0.12 35 1007.3
20260830213505 68 297 15.0 25.0 0.00 0.23 0.12 35 1007.5
20260830213005 68 286 14.0 26.0 0.00 0.23 0.12 34 1007.6
20260830212505 68 287 14.0 26.0 0.00 0.23 0.12 35 1007.7
20260830212005 68 283 14.0 25.0 0.00 0.23 0.12 36 1007.8
20260830211504 67 300 14.0 23.0 0.00 0.23 0.12 36 1007.7
20260830211005 67 298 15.0 24.0 0.00 0.23 0.12 36 1007.6
20260830210005 67 295 17.0 26.0 0.00 0.23 0.12 36 1007.7
20260830205504 67 279 14.0 22.0 0.00 0.23 0.12 37 1007.7
20260830205004 67 284 15.0 21.0 0.00 0.23 0.12 39 1007.6
20260830204505 67 276 12.0 21.0 0.00 0.23 0.12 43 1007.6
20260830204004 66 283 11.0 20.0 0.00 0.23 0.12 44 1007.6
20260830203505 66 284 14.0 20.0 0.00 0.23 0.12 43 1007.7
20260830203005 66 293 12.0 20.0 0.00 0.23 0.12 45 1007.7
20260830202005 65 276 12.0 22.0 0.00 0.23 0.12 47 1007.6
20260830201504 65 261 16.0 24.0 0.00 0.23 0.12 45 1007.6
20260830201005 65 272 13.0 24.0 0.00 0.23 0.12 46 1007.5
20260830195505 64 263 13.0 21.0 0.00 0.23 0.12 51 1007.3
20260830195005 64 274 13.0 21.0 0.00 0.23 0.12 52 1007.5
20260830194504 64 257 14.0 21.0 0.00 0.23 0.12 52 1007.4
20260830194005 64 276 14.0 20.0 0.00 0.23 0.12 53 1007.5
20260830193504 63 277 12.0 20.0 0.00 0.23 0.12 54 1007.6
20260830193004 63 274 13.0 21.0 0.00 0.23 0.12 53 1007.7
20260830192505 63 270 13.0 21.0 0.00 0.23 0.12 55 1007.7
20260830192004 62 285 13.0 22.0 0.00 0.23 0.12 57 1007.7
20260830191504 62 277 16.0 22.0 0.00 0.23 0.12 56 1007.7
20260830191005 62 273 16.0 22.0 0.00 0.23 0.12 55 1007.7
20260830190005 61 271 14.0 21.0 0.00 0.23 0.12 57 1007.5
20260830185504 61 273 13.0 24.0 0.00 0.23 0.12 59 1007.5
20260830184504 61 270 17.0 23.0 0.00 0.23 0.12 58 1007.8
20260830183505 60 271 14.0 24.0 0.00 0.23 0.12 59 1007.6
20260830183005 60 271 16.0 24.0 0.00 0.23 0.12 61 1007.6
20260830182504 60 276 14.0 23.0 0.00 0.23 0.12 61 1007.6
20260830182005 60 281 16.0 23.0 0.00 0.23 0.12 63 1007.6
20260830181504 60 274 16.0 22.0 0.00 0.23 0.12 62 1007.6
20260830181005 59 263 12.0 21.0 0.00 0.23 0.12 66 1007.7
20260830180005 59 270 14.0 24.0 0.00 0.23 0.12 65 1007.9
20260830175505 58 265 15.0 22.0 0.00 0.23 0.12 65 1007.8
20260830175004 58 275 15.0 20.0 0.00 0.23 0.12 66 1007.7
20260830174505 58 268 13.0 23.0 0.00 0.23 0.12 69 1007.7
20260830174005 57 279 14.0 23.0 0.00 0.23 0.12 70 1007.9
20260830173504 57 284 14.0 20.0 0.00 0.23 0.12 72 1007.9
20260830172005 55 292 12.0 17.0 0.00 0.23 0.12 74 1007.9
20260830171505 54 284 12.0 17.0 0.00 0.23 0.12 77 1008.2
20260830171005 54 281 12.0 18.0 0.00 0.23 0.12 77 1008.2
20260830170005 54 271 12.0 18.0 0.00 0.23 0.12 77 1008.1
20260830165004 53 250 9.0 16.0 0.00 0.23 0.12 81 1008.2
20260830164505 53 255 8.0 12.0 0.00 0.23 0.12 82 1008.1
20260830164005 53 241 5.0 10.0 0.00 0.23 0.12 83 1007.9
20260830163505 53 239 7.0 10.0 0.00 0.23 0.12 83 1007.8
20260830163004 53 240 5.0 9.0 0.00 0.23 0.12 84 1007.7
20260830162504 53 261 4.0 9.0 0.00 0.23 0.12 85 1007.8
20260830161505 52 242 1.0 8.0 0.00 0.23 0.12 88 1007.7
20260830161005 52 245 4.0 8.0 0.00 0.23 0.12 88 1007.5
20260830160005 53 315 6.0 12.0 0.00 0.23 0.12 87 1007.3
20260830155504 53 319 7.0 16.0 0.00 0.23 0.12 86 1006.6
20260830155005 53 278 10.0 16.0 0.00 0.23 0.12 83 1006.8
20260830154504 52 278 7.0 16.0 0.00 0.23 0.12 84 1006.5
20260830154005 52 239 3.0 15.0 0.00 0.23 0.12 83 1005.7
20260830153504 52 193 7.0 17.0 0.01 0.23 0.12 84 1005.4
20260830152005 51 241 2.0 8.0 0.07 0.23 0.12 88 1006.3
20260830151504 51 298 3.0 8.0 0.08 0.23 0.12 89 1006.7
20260830151004 51 286 5.0 8.0 0.09 0.23 0.12 89 1006.9
20260830150004 50 190 5.0 12.0 0.11 0.23 0.12 90 1006.5
20260830145505 50 192 7.0 12.0 0.11 0.23 0.12 90 1006.8
20260830145004 50 178 7.0 12.0 0.11 0.23 0.12 89 1006.9
20260830144504 50 203 9.0 16.0 0.11 0.23 0.12 89 1007.1
20260830144005 50 247 5.0 21.0 0.11 0.23 0.12 88 1006.8
20260830143504 50 257 13.0 23.0 0.10 0.22 0.11 87 1007.5
20260830143005 50 256 15.0 23.0 0.08 0.20 0.09 86 1007.8
20260830142504 51 262 15.0 28.0 0.06 0.18 0.07 86 1007.8
20260830142005 51 261 18.0 28.0 0.04 0.16 0.05 84 1007.8
20260830141505 51 253 22.0 28.0 0.03 0.15 0.04 82 1007.6
20260830141005 51 252 18.0 26.0 0.02 0.14 0.03 82 1007.4
20260830140005 54 278 18.0 29.0 0.00 0.12 0.01 75 1006.9
20260830135509 56 270 19.0 26.0 0.00 0.12 0.01 69 1006.9
20260830134005 56 231 5.0 8.0 0.00 0.13 0.01 74 1006.0
20260830133505 55 229 5.0 9.0 0.00 0.13 0.01 75 1005.9
20260830133004 55 188 3.0 9.0 0.00 0.15 0.01 76 1006.0
20260830132505 55 173 6.0 9.0 0.00 0.15 0.01 75 1005.9
20260830132005 55 186 6.0 9.0 0.00 0.16 0.01 76 1006.0
20260830131504 55 198 7.0 9.0 0.00 0.17 0.01 76 1006.1
20260830131004 55 197 5.0 6.0 0.00 0.18 0.01 76 1006.1
20260830125504 55 203 3.0 7.0 0.00 0.19 0.01 76 1005.8
20260830125004 55 215 5.0 9.0 0.01 0.19 0.01 76 1005.9
20260830124005 55 242 5.0 10.0 0.01 0.19 0.01 77 1005.7
20260830123505 55 241 6.0 9.0 0.01 0.19 0.01 78 1005.7
20260830123005 55 237 5.0 9.0 0.01 0.19 0.01 78 1005.7
20260830122505 55 228 5.0 9.0 0.01 0.19 0.01 78 1005.8
20260830122004 55 207 5.0 10.0 0.01 0.19 0.01 77 1005.6
20260830121005 55 225 6.0 14.0 0.01 0.19 0.01 78 1005.7
20260830120004 56 230 7.0 13.0 0.01 0.19 0.01 78 1005.5
20260830115505 56 231 8.0 12.0 0.01 0.19 0.01 79 1005.6
20260830115004 56 232 7.0 12.0 0.00 0.18 0.00 79 1005.6
20260830114504 56 233 8.0 14.0 0.00 0.18 0.00 79 1005.7
20260830114005 56 240 10.0 14.0 0.00 0.18 0.00 79 1005.8
20260830113505 56 233 9.0 14.0 0.00 0.18 0.00 79 1005.7
20260830113004 56 228 9.0 13.0 0.00 0.18 0.00 78 1005.6
20260830112505 57 232 10.0 15.0 0.00 0.18 0.00 78 1005.5
20260830112005 57 231 7.0 15.0 0.00 0.18 0.00 77 1005.3
20260830111504 57 237 11.0 15.0 0.00 0.18 0.00 76 1005.2
20260830111004 57 252 8.0 13.0 0.00 0.18 0.00 75 1005.0
20260830105504 58 265 9.0 12.0 0.00 0.18 0.00 73 1004.6
20260830105005 57 241 7.0 12.0 0.00 0.18 0.00 75 1004.6
20260830104504 58 240 7.0 12.0 0.00 0.18 0.00 74 1004.5
20260830104005 58 240 8.0 12.0 0.00 0.18 0.00 72 1004.6
20260830103505 60 249 9.0 15.0 0.00 0.18 0.00 68 1004.6
20260830103005 61 239 9.0 15.0 0.00 0.18 0.00 65 1004.6
20260830102504 60 238 10.0 15.0 0.00 0.18 0.00 64 1004.6
20260830102005 59 235 10.0 14.0 0.00 0.18 0.00 66 1004.5
20260830101504 59 233 9.0 13.0 0.00 0.18 0.00 68 1004.3
20260830101005 59 243 8.0 13.0 0.00 0.18 0.00 69 1004.3
20260830095505 58 231 10.0 12.0 0.00 0.18 0.00 72 1004.4
20260830095005 57 227 5.0 9.0 0.00 0.18 0.00 73 1004.4
20260830094505 57 220 6.0 10.0 0.00 0.18 0.00 73 1004.4
20260830094004 58 207 7.0 10.0 0.00 0.18 0.00 73 1004.3
20260830093505 58 230 5.0 8.0 0.00 0.18 0.00 72 1004.1
20260830093004 58 208 5.0 8.0 0.00 0.18 0.00 72 1004.2
20260830092504 58 203 4.0 7.0 0.00 0.18 0.00 73 1004.2
20260830092005 57 229 4.0 6.0 0.00 0.18 0.00 75 1004.3
20260830091004 57 188 5.0 6.0 0.00 0.18 0.00 75 1004.3
20260830090005 56 237 5.0 9.0 0.00 0.18 0.00 76 1004.4
20260830085504 55 217 4.0 8.0 0.00 0.18 0.00 79 1004.5
20260830085005 55 233 4.0 10.0 0.00 0.18 0.00 80 1004.6
20260830084504 55 235 5.0 12.0 0.00 0.18 0.00 79 1004.7
20260830084004 55 243 9.0 12.0 0.00 0.18 0.00 81 1004.7
20260830083504 54 257 8.0 12.0 0.00 0.18 0.00 82 1004.7
20260830083005 54 240 6.0 12.0 0.00 0.18 0.00 83 1004.5
20260830082504 54 238 5.0 9.0 0.00 0.18 0.00 84 1004.4
20260830082004 54 208 3.0 6.0 0.00 0.18 0.00 83 1004.3
20260830081004 55 200 5.0 7.0 0.00 0.18 0.00 81 1004.1
20260830080004 55 236 5.0 8.0 0.00 0.18 0.00 80 1003.8
20260830075505 55 238 5.0 6.0 0.00 0.18 0.00 80 1003.7
20260830074504 55 212 2.0 3.0 0.00 0.18 0.00 79 1003.7
20260830074005 56 211 3.0 6.0 0.00 0.18 0.00 79 1003.6
20260830073505 56 205 3.0 6.0 0.00 0.18 0.00 80 1003.6
20260830073005 56 237 3.0 7.0 0.00 0.18 0.00 79 1003.6